Flag for Cameroon Weather past 2 weeks in Bamenda, Cameroon

Now
75 °F

Passing clouds.


Feels Like: 73 °F
Forecast: 61 / 79 °F
Wind: No wind

Location: Douala Obs.

Current Time: Oct 23, 2014 at 4:04:45 AM

Latest Report: Oct 23, 2014 at 3:00 AM


Visibility: N/A

Pressure: 29.89 "Hg

Humidity: 100%

Dew point: 75 °F

Location of BamendaLocation

Historic Weather in Bamenda — Graph

°F

Bamenda temperature yesterday

Maximum temperature yesterday: 82 °F (at 12:00 PM)
Minimum temperature yesterday: 77 °F (at 12:00 AM)
Average temperature yesterday: 79 °F

Past Weeks' High & Low Weather Summary

 TemperatureHumidityPressure
High90 °F (Oct 15, 2:00 PM)100% (Oct 8, 3:00 AM)30.01 "Hg (Oct 8, 3:00 AM)
Low73 °F (Oct 12, 4:00 AM)59% (Oct 13, 1:00 PM)29.77 "Hg (Oct 8, 4:00 PM)
Average79 °F89%29.88 "Hg
* Reported Oct 8 3:00 AM — Oct 23 3:00 AM, Bamenda, Weather by CustomWeather, © 2014

Note: Actual official high and low records may vary slightly from our data, if they occured in-between our weather recording intervals... More about our weather records

Advertising

Bamenda weather history for previous 24 hours

 ConditionsComfort  
Time TempWeatherWind HumidityBarometerVisibility
3:00 AM
Oct 23
75 °FPassing clouds.No wind100%29.89 "HgN/A
2:00 AM77 °FPassing clouds.No wind94%29.89 "HgN/A
1:00 AM77 °FPassing clouds.No wind94%29.89 "HgN/A
12:00 AM77 °FPassing clouds.No wind100%29.92 "HgN/A
11:00 PM
Oct 22
79 °FPassing clouds.No wind89%29.92 "HgN/A
10:00 PM79 °FPassing clouds.No wind89%29.92 "HgN/A
9:00 PM79 °FPassing clouds.No wind89%29.89 "HgN/A
8:00 PM79 °FPassing clouds.No wind89%29.89 "HgN/A
7:00 PM79 °FPartly cloudy.No wind89%29.89 "HgN/A
5:00 PM82 °FPartly sunny.9 mph79%29.83 "HgN/A
4:00 PM82 °FPartly sunny.12 mph84%29.83 "HgN/A
3:00 PM82 °FThunderstorms. Partly sunny.7 mph84%29.83 "HgN/A
2:00 PM82 °FThunderstorms. Broken clouds.No wind84%29.86 "HgN/A
1:00 PM82 °FThunderstorms. Cloudy.No wind84%29.89 "HgN/A
12:00 PM82 °FThunderstorms. Cloudy.No wind84%29.95 "HgN/A
11:00 AM81 °FThunderstorms. Broken clouds.No wind89%29.95 "Hg5 mi
10:00 AM79 °FThunderstorms. Broken clouds.No wind94%29.98 "Hg5 mi
9:00 AM77 °FThunderstorms. Broken clouds.5 mph100%29.95 "Hg5 mi
8:00 AM77 °FThunderstorms. Broken clouds.No wind100%29.92 "Hg4 mi
7:00 AM77 °FThunderstorms. Broken clouds.No wind100%29.89 "Hg4 mi
6:00 AM77 °FThunderstorms. Partly cloudy.No wind94%29.89 "Hg5 mi
5:00 AM77 °FThunderstorms. Partly cloudy.No wind94%29.89 "Hg5 mi
4:00 AM77 °FThunderstorms. Partly cloudy.No wind100%29.86 "Hg5 mi
Weather by CustomWeather, © 2014

See weather overviewHow to use our weather pages